Regional Weather Roundup
Issued by NWS Wakefield, VA

Home | Current Version | Previous Version | Text Only | Print | Product List | Glossary Off
Versions: 1 2 3 4 5 6 7 8 9 10 11 12 13 14 15 16 17 18 19 20 21 22 23 24 25 26 27 28 29 30 31 32 33 34 35 36 37 38 39 40 41 42 43 44 45 46 47 48 49 50

000
ASUS41 KAKQ 201810
RWRAKQ

REGIONAL WEATHER ROUNDUP
NATIONAL WEATHER SERVICE WAKEFIELD VA
200 PM EDT MON OCT 20 2014

Note: "fair" indicates few or no clouds below 12,000 feet with no
significant weather and/or obstructions to visibility. * = Denotes
station may not report precipitation (e.g., rain,snow,etc.),
thunder or fog.

VAZ042-051-052>054-056-201900-
NORTHERN VIRGINIA

CITY           SKY/WX    TMP DP  RH WIND       PRES   REMARKS
WASH NATIONAL  CLOUDY    67  43  41 S15G21    30.00F
DULLES         PTSUNNY   63  44  50 S10G21    29.97F
FORT BELVOIR   SUNNY     66  45  46 S12G21    29.99F
QUANTICO       MOSUNNY   66  46  48 SW14      30.00F
FREDERICKSBRG* SUNNY     69  45  42 S12G21    29.99F
STAFFORD*      MOSUNNY   65  42  42 S10G21    30.03F
WARRENTON      SUNNY     68  52  56 S12G21    29.97F
CULPEPER*      MOSUNNY   66  46  48 SW12      29.98F
MANASSAS*      NOT AVBL
LEESBURG*      PTSUNNY   64  45  48 SW8       29.98F
WINCHESTER     PTSUNNY   63  34  34 CALM      29.96F
FRONT ROYAL*   PTCLDY    64  39  39 SW3       29.95F
LURAY*         PTCLDY    68  41  37 S10       29.95F
$$

VAZ048-049-060>072-079>083-201900-
CENTRAL AND SOUTH CENTRAL VIRGINIA...AND NORTH CENTRAL NORTH CAROLINA

CITY           SKY/WX    TMP DP  RH WIND       PRES   REMARKS
RICHMOND       PTSUNNY   67  40  37 S14       30.03F
CHESTERFIELD*  CLEAR    N/A N/A N/A S12G18    30.04F
PETERSBURG*    SUNNY     66  40  37 S7        30.05F
HANOVER        SUNNY     66  43  43 S14G21    30.04F
TAPPAHANNOCK*  SUNNY     66  35  31 S12G21    30.05F
CHARLOTTSVILLE MOSUNNY   64  46  52 S15       29.98F
ORANGE*        MOSUNNY   66  46  48 S14G21    30.00F
LOUISA*        SUNNY     64  46  52 SW8G17    29.99F
FARMVILLE*     SUNNY     66  45  45 SW14      30.00F
CREWE*         CLEAR     66  43  44 S9        30.03F
FORT PICKETT*  CLEAR     65  44  46 S13       30.04F
LUNENBURG*     CLEAR     65  46  50 S9        30.04F
SOUTH HILL*    SUNNY     70  45  40 S10       30.09F
LAWRENCEVILLE* CLEAR     65  44  45 S7        30.05F
ROANOKE RAPIDS CLEAR     66  45  45 S9        30.06F
RALEIGH        MOSUNNY   68  43  40 VRB6      30.06F
$$

VAZ088>098-201900-
SOUTHEAST VIRGINIA

CITY           SKY/WX    TMP DP  RH WIND       PRES   REMARKS
NORFOLK        PTSUNNY   67  36  31 S14       30.07F
VIRGINIA BEACH PTSUNNY   68  42  38 SW13      30.06F
NORFOLK NAVAL  PTSUNNY   68  38  33 S9        30.07F
WEST POINT*    MOSUNNY   68  35  29 SW14      30.07F
NEWPORT NEWS   MOSUNNY   68  38  33 S13G22    30.06F
LANGLEY AFB    MOSUNNY   65  40  39 S15       30.06F
FORT EUSTIS    MOSUNNY   65  43  44 S9        30.04F
WILLIAMSBURG*  MOSUNNY   70  43  37 S8        30.07F
HR EXEC AP*    MOCLDY    66  39  37 SW10      30.09F
FRANKLIN*      MOSUNNY   66  39  37 SW9       30.06F
WAKEFIELD      MOSUNNY  N/A N/A N/A MISG      30.06F
$$

VAZ020-022-025-037-045-201900-
WEST CENTRAL AND SOUTHWEST VIRGINIA

CITY           SKY/WX    TMP DP  RH WIND       PRES   REMARKS
STAUNTON*      MOSUNNY   66  36  32 S13       29.98F
HOT SPRINGS VA MOSUNNY   54  36  49 W12G20    29.98F
LYNCHBURG      MOSUNNY   65  47  52 S15       30.01F
DANVILLE       SUNNY     68  46  45 SW12G21   30.02F
SOUTH BOSTON*  NOT AVBL
MARTINSVILLE   MOSUNNY   67  46  46 SW7       30.04F
ROANOKE        PTSUNNY   64  45  49 S7        30.01F
BLACKSBURG     MOSUNNY   64  48  55 CALM      30.02F
DUBLIN*        SUNNY     66  42  42 SW13      30.01F
MARION*        SUNNY     60  44  54 W18G26    30.05F
HILLSVILLE*    SUNNY     62  48  60 S6        30.02F
RICHLANDS*     PTCLDY    61  41  48 W9        30.03F
WISE*          CLOUDY    59  41  51 SW16      30.05F
ABINGDON*      PTSUNNY   63  47  55 W9G17     30.04F
$$

MDZ021>025-VAZ099-100-201900-
SOUTHERN MARYLAND AND THE DELMARVA PENINSULA

CITY           SKY/WX    TMP DP  RH WIND       PRES   REMARKS
PATUXENT RIVER PTSUNNY   65  39  38 SW15      30.02F
BAY BRIDGE APT   N/A     63  39  42 S14G20    30.01F
LEONARDTOWN    MOSUNNY   64  37  36 S8G18     30.04F
DOVER          PTSUNNY   63  41  45 S15G22    30.01F
GEORGETOWN     PTSUNNY   65  43  44 S15G22    30.05F
EASTON         SUNNY     66  43  42 MISG      30.05F
CAMBRIDGE      PTSUNNY   63  37  39 S10G16    30.03F
SALISBURY      MOSUNNY   66  44  45 SW13G21   30.05F
OCEAN CITY     PTSUNNY   64  42  44 S9G20     30.06F
WALLOPS ISLAND PTSUNNY   66  44  45 S16G23    30.08F
ACCOMACK*      PTSUNNY   64  37  36 SW8       30.07F
$$

NCZ012>017-030>032-201900-
EASTERN NORTH CAROLINA

CITY           SKY/WX    TMP DP  RH WIND       PRES   REMARKS
ELIZABETH CITY MOSUNNY   69  44  40 SW14G22   30.08F
AHOSKIE*       SUNNY     67  46  48 S13       30.07F
EDENTON*       MOSUNNY   68  44  41 SW7       30.08F
CURRITUCK*     MOSUNNY   67  40  38 S7        30.09F
KILL DEVIL HLS MOSUNNY   69  49  49 S5        30.07F
MANTEO         MOSUNNY   67  49  53 S13       30.09F
CAPE HATTERAS  SUNNY     67  50  54 VRB3      30.10F
TARBORO*       CLEAR     70  47  44 SW9G21    30.08F
GOLDSBORO      SUNNY     71  54  54 SW15      30.05F
WASHINGTON     NOT AVBL
GREENVILLE     SUNNY     70  48  46 SW9       30.09F
NEW BERN       MOSUNNY   72  51  47 SW8       30.09F
WILMINGTON     MOSUNNY   73  55  53 SE8       30.07F
$$

VAZ048-201900-
ELSEWHERE

CITY           SKY/WX    TMP DP  RH WIND       PRES   REMARKS
HARRISBURG PA  PTSUNNY   63  40  42 S8        29.97F
BALTIMORE      PTSUNNY   64  41  42 SW8       29.99F
ANNAPOLIS      MOSUNNY   63  44  50 S13       30.00F
ANDREWS AFB    MOSUNNY   66  45  45 S16G25    29.99F
WILMINGTON DE  MOSUNNY   59  38  45 S6        30.03F
PHILADELPHIA   PTSUNNY   62  37  39 S10G21    30.03F
WILDWOOD NJ*   PTSUNNY   64  39  39 S13       30.06F
ATLANTIC CITY  PTSUNNY   62  37  39 S9        30.04F
HENDERSON NC   SUNNY     66  40  38 S12       30.05F
GREENSBORO     PTSUNNY   68  46  45 SW14      30.03F
ROCKY MOUNT    SUNNY     69  44  40 S8        30.07F
FAYETTEVILLE   SUNNY     72  48  42 SW12      30.05F
CHARLOTTE      MOSUNNY   68  46  45 SW5       30.05F
$$

VAZ100-201900-
MARINE

STATION/POSITION TIME  TEMP    WIND        PRES    WAVE   SWELL
                       AIR SEA DIR/SP/G            HT/PER HT/PER
                 (UTC) (F)     (DEG/KT/KT) (MB)    (FT/S) (FT/S)
44066 TX TWR #4  1800   56 66  230/ 14/ 16 1018.5F   2/10   2/10
CAPE MAY NJ      1800   61 67  200/  8/ 11 1017.2F
LEWES DE         1800   63 61  230/ 11/ 15 1017.3F
15NM E FENWICK I 1800   62 66  210/ 16/ 17 1018.0F   2/11   2/11
OCEAN-CITY-INLET 1800   62 65  230/ 15/ 18 1017.7F
WACHAPREAGUE VA  1800   63 60  210/ 12/ 16 1018.5F
THOMAS POINT MD  1800   61 63  170/ 21/ 24 1016.7F
GOOSES REEF MD   1800   62     210/ 12/ 14 1017.1F
COVE POINT MD    1800   62     200/ 14/ 17 1016.7F
SOLOMONS ISLAND  1800      66                N/A
BISHOPS HEAD MD  1800   60 59  180/ 17/ 19 1016.8F
PINEY POINT MD   1800          210/ 16/ 18   N/A
POTOMAC MD       1800   62     220/ 16/ 17 1016.8F
CAMBRIDGE MD     1800   63 62  190/  5/ 11 1016.8F
LEWISETTA VA     1800   62 63  210/ 13/ 16 1016.7F
RAPPAHANNOCK LGT 1800          200/ 13/ 15 1018.6F
STINGRAY PT      1800   62     220/ 12/ 16 1018.8F
YORK RVR RNG VA  1800   63     220/ 13/ 15 1017.6F
YORKTOWN VA      1800   62 67  220/ 11/ 15 1017.8F
JAMESTOWN VA     1800   62     220/ 12/ 16   N/A
DOMINION TERM VA 1800   63     220/  9/ 13 1018.2F
KIPTOPEKE VA     1800      69  200/ 10/ 12   N/A
CHES BAY BRIDGE  1800   64 67  180/ 11/ 15 1017.7F
CHESAPEAKE LGHT  1700   62     190/ 16/ 18 1019.8F
WILLOUBY STN VA  1800   64     210/ 10/ 12 1016.8F
S CRANEY ISL VA  1800          180/ 10/ 13 1017.9F
CAPE HENRY BUOY  1700      69                N/A     2/12   2/12
1ST LANDING BUOY 1800   64     220/  6/ 10 1018.3F
CAPE CHARLES BUO 1800      69                N/A     2/12   2/12
64NM E OF VA BCH 1800   64 69  190/ 10/ 12 1018.8F   3/11   2/11
DUCK PIER NC     1800   64 68  190/  8/ 10 1018.1F
44100 DUCK FRF   1800      71                N/A     3/13   2/13
44056 DUCK FRF   1800                        N/A     2/12   2/12
OREGON INLET NC  1800   65 67  160/  5/  9 1019.1F
HATTERAS NC      1800   64 69  350/  4/  5 1019.6F
DIAMOND SHLS NC  1800   67      CALM  /  2 1019.5F   3/ 8   3/ 8
CAPE LOOKOUT NC  1700   67      60/  4/  5 1019.8F
$$


USA.gov is the U.S. government's official web portal to all federal, state and local government web resources and services.